Location: Dammartin
(48.9032°N, 1.6195°E)
Time: 18:18:40
(UTC+00:00)

BlueWalker 3 - Pass Details

Date: 17 April 2024
Orbit: 482 x 494 km, 53.2° (Epoch: 22 May)

Event Time Altitude Azimuth Distance (km) Brightness Sun altitude
Rises 20:58:13 0° 234° (SW) 2,567 5.7 -18.9°
Reaches altitude 10° 21:00:23 10° 232° (SW) 1,690 4.7 -19.2°
Maximum altitude 21:04:11 68° 150° (SSE) 539 1.8 -19.6°
Enters shadow 21:04:35 62° 109° (ESE) 564 1.8 -19.7°
